Terminal Aerodrome Forecast
Issued by NWS

Home | Current Version | Previous Version | Graphics & Text | Print | Product List | Glossary On
Versions: 1 2 3 4 5 6 7 8 9 10 11 12 13 14 15 16 17 18 19 20 21 22 23 24 25 26 27 28 29 30 31 32 33 34 35 36 37 38 39 40
000
FTUS43 KGRB 041457 AAB
TAFRHI
TAF AMD
KRHI 041457Z 0415/0512 10005KT P6SM SCT004 SCT040
     FM041700 13005KT P6SM SCT015 SCT200
     FM050400 VRB02KT 3SM BR SCT006
      TEMPO 0508/0512 1SM BR BKN006=

USA.gov is the U.S. government's official web portal to all federal, state and local government web resources and services.